Theta_e
327 328 329 326 315 315 306 307 313 311 312 316 316 315 314 317 313 307 336 341 342 342 345 346 346 344 342 342 342 342 341 341 341 341 340 338 336 336 338 340 339 337 335 335 338 338 336 335 335
322 324 327 323 311 305 306 311 310 313 316 319 318 317 314 311 325 330 335 341 342 343 344 345 343 344 341 341 341 340 340 339 342 342 340 337 336 336 336 337 340 337 336 335 336 338 336 334 334
319 323 322 315 311 306 306 311 313 314 317 317 317 321 317 316 327 331 338 343 343 343 344 345 344 344 341 340 339 339 339 338 341 340 339 338 336 336 338 336 335 334 333 334 336 336 337 334 334
322 324 320 310 306 309 311 313 314 315 316 318 320 315 324 329 329 335 341 343 342 342 344 343 345 344 342 341 340 340 339 339 338 337 337 337 337 336 335 335 333 334 332 330 336 339 336 336 335
323 322 311 308 308 310 312 316 316 315 316 317 317 314 318 330 334 339 341 342 341 342 344 345 344 345 344 342 341 339 339 339 339 338 336 336 336 337 336 334 333 332 332 330 330 330 331 332 332
315 318 307 304 307 310 312 316 317 315 316 317 315 315 320 332 335 339 342 341 342 341 343 344 338 341 343 343 343 342 340 337 336 337 338 339 337 339 337 334 333 331 331 331 330 329 328 328 327
310 312 307 308 308 309 311 317 316 315 315 316 319 312 322 329 336 340 341 342 342 342 343 344 345 341 336 339 340 341 341 338 337 337 338 338 337 337 336 336 335 334 332 332 332 331 329 329 329
310 312 306 308 307 308 313 315 316 316 315 321 321 310 315 327 337 340 341 340 341 342 343 343 344 344 343 343 334 335 337 336 336 335 334 332 332 333 332 330 333 336 336 336 334 334 333 332 332
306 305 304 306 307 309 312 312 313 316 318 319 320 318 321 332 336 337 337 338 340 340 342 343 343 343 342 342 337 331 332 332 332 331 329 329 335 334 332 328 329 330 332 333 334 336 337 334 332
304 300 304 305 310 310 311 312 313 313 315 315 317 321 329 332 333 332 333 333 336 337 340 341 342 342 342 340 341 341 341 340 338 337 336 336 335 334 330 325 324 327 328 330 331 333 333 329 334
301 299 300 303 309 311 310 309 313 313 312 317 316 320 327 329 330 330 331 331 333 336 338 340 341 342 341 341 342 342 342 341 340 338 337 337 336 336 336 335 334 334 324 332 331 331 329 330 330
300 301 302 307 309 308 308 310 309 312 315 315 318 323 327 327 327 328 328 329 332 334 336 339 341 341 341 342 341 342 341 341 339 339 338 336 335 335 333 331 332 330 331 330 331 329 329 329 327
301 303 306 307 307 308 308 308 309 309 314 312 312 319 324 326 327 329 330 331 332 332 333 334 338 339 340 341 341 341 341 340 341 340 336 334 333 333 334 333 332 332 331 329 329 328 328 327 328
303 305 306 307 306 306 306 307 306 310 312 312 314 317 323 325 327 329 329 329 330 329 323 321 324 329 333 337 339 340 341 341 341 339 335 335 334 333 333 333 333 333 333 332 330 329 329 328 328
303 300 301 304 305 304 305 302 304 310 309 311 314 318 322 325 327 326 327 325 320 318 319 319 318 320 323 327 333 337 338 338 340 340 336 334 335 336 336 336 335 335 335 333 332 334 334 333 334
299 299 294 297 303 303 301 295 304 307 307 310 313 317 320 322 322 314 313 314 315 317 316 315 314 315 316 319 325 326 330 335 335 332 332 330 333 334 336 337 336 337 337 335 334 332 331 332 330
296 292 292 294 300 301 301 297 299 302 303 307 311 314 315 312 310 311 310 311 312 313 313 312 311 311 313 317 323 326 325 325 325 324 319 318 319 322 328 329 330 333 335 334 333 332 332 331 330
291 290 290 292 295 299 298 297 300 300 301 304 307 309 310 312 312 309 307 307 307 308 308 308 308 309 312 320 323 324 322 320 319 316 313 312 313 315 319 321 323 327 329 326 326 326 327 327 326
294 292 291 291 295 294 295 295 298 301 301 301 303 305 306 307 310 307 306 305 305 305 305 305 306 308 312 318 322 323 321 317 313 307 305 306 308 310 315 318 318 321 320 317 316 316 318 323 322
292 290 289 292 297 296 295 294 298 300 300 301 302 303 305 307 305 304 304 303 303 302 303 303 303 305 308 315 319 322 317 312 307 303 300 301 304 306 307 310 310 310 312 310 311 313 315 319 318
292 289 289 288 294 295 293 291 293 296 299 301 302 304 305 306 305 304 302 302 301 300 301 301 301 302 306 310 316 314 312 310 308 305 300 299 301 302 304 305 306 307 308 308 308 308 309 311 314
289 294 293 292 291 285 293 284 292 294 295 296 298 300 303 305 306 305 302 300 299 297 298 299 299 299 301 306 315 314 315 311 304 302 299 298 299 299 301 302 303 303 303 302 302 303 305 308 307
291 296 294 293 291 289 289 286 289 290 291 294 297 298 300 300 304 303 301 299 297 297 297 297 297 297 299 303 308 311 307 303 300 299 297 297 297 297 298 299 299 299 300 300 300 301 301 302 302
295 293 292 292 290 283 286 286 286 288 290 294 296 298 297 297 299 300 298 296 295 295 295 296 296 295 297 299 300 303 303 300 300 298 298 296 296 295 295 296 297 297 298 297 298 298 298 298 298
294 290 283 281 282 280 285 284 288 292 293 294 296 297 296 297 298 296 295 295 295 295 295 294 294 292 293 295 296 297 297 298 297 296 295 294 294 293 293 294 295 295 295 295 296 295 295 295 294
290 288 283 276 277 281 284 281 288 293 294 295 295 296 296 296 296 296 296 295 295 294 294 293 292 291 292 292 292 293 293 294 293 292 293 292 292 292 292 292 293 293 293 293 293 293 293 293 292
291 287 289 283 278 281 285 287 292 292 292 293 293 294 295 295 295 295 295 295 294 294 293 293 292 290 290 290 291 291 291 291 290 290 291 292 292 290 290 290 291 291 292 291 291 291 290 290 290
293 293 285 286 278 277 280 282 285 289 291 292 293 294 295 295 295 295 295 295 295 294 293 292 292 290 289 289 290 289 289 289 289 290 289 290 289 289 288 288 289 289 289 290 289 288 288 288 287
289 288 288 288 285 279 278 283 290 290 292 293 295 296 297 296 296 295 295 295 295 294 292 292 291 290 289 289 289 288 288 288 288 288 289 288 288 287 287 287 287 287 287 287 287 286 286 285 285
293 291 290 284 280 283 281 284 291 292 293 293 296 296 297 298 298 297 297 296 295 294 293 292 291 290 290 289 288 287 287 287 287 287 287 287 286 286 286 286 286 285 285 286 285 284 284 283 283
Wind_Speed
3 7 3 5 5 2 5 5 2 7 6 3 4 1 2 5 4 5 5 6 10 12 11 12 10 10 10 10 9 9 9 7 7 9 9 9 9 9 9 8 9 10 10 8 8 10 10 10 10
2 4 4 1 4 5 6 5 8 5 5 9 8 5 2 5 2 8 9 5 12 12 10 11 12 10 10 9 9 8 7 6 4 10 9 8 8 8 7 6 11 10 8 6 6 7 8 9 9
3 3 4 3 3 3 6 8 10 11 9 4 4 2 2 4 5 10 5 10 11 11 10 10 11 11 10 9 8 8 7 6 8 8 7 7 8 8 9 8 8 8 7 6 5 6 9 7 8
2 4 3 5 6 3 4 12 10 13 3 3 3 7 4 3 5 3 12 12 11 10 9 11 10 10 10 9 9 8 7 6 5 5 4 4 7 8 6 6 6 6 7 7 7 9 7 6 7
0 2 4 4 4 3 3 11 14 11 7 8 4 6 6 4 4 8 12 10 10 10 8 10 8 9 9 9 9 8 6 5 4 3 2 1 1 6 5 5 4 5 5 6 6 5 5 5 5
2 3 6 8 6 4 3 9 12 7 6 6 5 9 5 4 10 11 11 10 9 9 8 8 7 6 9 8 8 7 6 5 4 4 3 5 3 5 5 2 2 2 2 3 2 3 3 3 2
2 3 4 5 8 6 5 10 13 8 7 6 5 7 5 8 10 13 11 10 8 7 7 6 7 8 5 6 6 6 5 5 4 3 3 5 3 3 3 2 2 3 2 2 2 1 1 2 3
2 0 5 4 9 6 8 10 6 8 7 3 4 5 6 12 13 13 12 10 8 7 7 6 6 6 6 7 6 5 5 4 4 4 3 3 2 2 2 1 2 4 4 5 5 5 4 4 4
1 3 5 6 8 7 9 10 3 2 6 3 5 1 3 17 14 13 11 11 9 7 8 7 7 6 6 5 5 5 5 4 4 5 4 5 4 3 3 2 3 4 5 5 5 5 6 6 7
0 2 5 1 3 5 10 7 10 7 7 7 7 4 9 16 15 15 13 12 12 12 10 8 8 7 6 5 6 6 5 5 5 5 5 4 4 3 3 3 5 6 5 7 7 6 5 6 5
2 1 5 3 2 2 8 6 6 7 9 11 13 13 15 16 15 13 12 11 11 10 8 9 8 7 7 6 4 4 3 3 4 5 4 3 3 3 3 3 3 3 5 5 4 3 3 4 5
3 2 1 5 2 3 4 5 6 12 5 1 4 11 16 17 16 15 12 9 8 8 7 7 8 7 7 5 5 4 4 4 4 4 5 4 3 3 4 3 3 3 3 4 3 3 4 6 6
2 4 2 2 2 2 2 4 5 9 8 1 4 9 16 16 15 12 9 7 6 6 4 5 6 7 6 7 5 5 4 5 5 5 4 4 4 5 4 3 4 4 4 5 5 5 5 5 7
3 4 4 2 1 0 3 2 2 4 6 6 7 13 15 16 15 12 11 10 7 4 2 2 2 2 5 6 6 5 5 5 5 4 4 6 5 5 5 5 5 5 6 5 6 6 7 6 6
4 4 3 5 3 2 2 4 10 3 4 8 8 9 11 13 12 12 8 8 5 5 5 5 4 4 4 2 2 4 4 4 4 4 4 6 7 8 9 8 8 7 6 6 6 8 7 7 8
3 1 5 3 4 2 4 11 7 3 5 8 8 9 11 11 10 6 4 4 3 6 6 6 4 3 4 4 2 2 1 1 1 3 4 6 6 7 8 8 7 6 5 5 6 6 6 6 6
1 5 8 1 1 1 7 7 2 1 4 8 8 10 10 10 9 6 4 4 4 4 5 5 4 4 3 3 3 4 4 3 4 4 4 6 6 7 5 4 5 6 5 3 4 4 6 5 6
8 6 3 5 3 3 6 16 5 1 4 8 9 9 10 12 11 7 5 5 5 5 4 4 4 4 3 2 3 3 4 4 5 5 6 7 6 7 4 3 4 4 3 3 4 5 4 3 4
5 5 6 2 2 3 7 14 14 10 10 11 11 10 11 11 8 7 6 5 5 5 5 5 4 5 2 1 2 2 2 3 5 5 7 7 7 7 6 4 5 5 4 5 5 4 5 2 4
5 5 3 1 1 4 5 16 17 12 13 15 17 15 14 12 10 9 7 5 5 6 5 5 5 5 4 1 2 1 3 5 5 4 6 7 8 8 7 6 5 6 3 4 5 5 4 2 4
4 7 3 2 1 2 7 11 7 4 8 10 12 14 15 16 14 13 11 8 6 5 5 5 5 5 4 1 3 4 6 4 3 3 4 7 8 8 8 7 5 5 5 4 5 6 5 3 1
10 7 6 5 3 4 4 6 4 2 6 6 6 7 11 13 13 12 12 10 8 6 4 5 6 5 5 4 3 3 2 3 3 4 4 5 8 8 8 7 6 6 5 6 5 5 4 4 2
2 8 6 2 3 3 5 5 5 3 4 3 4 2 2 4 8 11 12 9 7 6 5 5 6 6 6 5 3 3 5 5 4 3 4 5 6 7 7 7 6 6 5 5 5 5 6 5 3
13 9 6 3 2 5 4 6 5 4 1 1 4 3 1 1 5 10 9 9 7 5 5 5 6 6 6 6 6 6 6 5 4 3 2 3 4 4 6 6 6 6 5 5 5 6 7 6 6
4 10 3 4 4 3 3 5 10 5 6 7 9 3 1 4 9 11 11 9 7 7 6 5 5 6 6 7 7 7 6 6 5 3 3 3 3 4 6 6 6 5 5 6 5 7 7 7 6
7 5 3 5 4 2 2 7 3 1 2 4 3 3 4 6 7 8 8 8 8 7 6 6 6 6 6 6 7 6 5 4 4 4 3 3 3 4 4 5 5 6 5 5 5 5 5 7 7
8 9 2 6 1 3 4 4 9 2 1 0 3 4 6 6 7 8 8 8 8 8 7 6 6 6 5 6 5 5 5 5 5 5 4 3 3 3 4 5 5 5 6 6 6 5 6 7 7
4 12 4 1 5 6 3 5 6 2 2 3 5 6 7 7 7 8 7 7 7 7 6 6 6 6 5 5 4 4 5 4 5 4 4 5 4 4 4 5 5 5 5 5 5 5 6 7 6
6 6 2 4 1 3 2 3 2 4 3 3 7 8 9 9 9 8 7 6 6 6 7 7 6 6 6 5 5 5 4 4 4 4 5 5 5 4 5 5 5 5 5 5 6 6 6 7 7
4 7 7 5 6 3 2 4 4 4 5 6 7 8 8 7 8 8 8 8 9 9 8 8 7 7 6 6 6 5 5 5 5 5 5 5 5 5 5 5 5 5 5 4 5 6 6 7 8
Wind_Direction
349 163 187 214 207 219 126 137 127 152 161 99 100 255 58 29 341 43 118 111 137 141 143 150 129 128 124 120 115 110 105 105 116 112 96 83 76 84 92 92 80 72 67 71 54 91 84 78 75
326 184 207 213 222 190 124 142 170 142 107 127 117 132 138 82 61 114 138 137 146 142 150 144 135 136 133 130 125 117 111 103 153 117 109 97 91 88 96 96 88 76 64 65 83 99 100 87 77
202 257 230 181 202 156 137 173 136 125 129 166 127 1 86 87 108 135 101 142 148 147 149 127 134 142 141 136 132 127 120 109 102 116 120 125 116 100 83 74 69 65 64 68 60 129 112 98 80
224 183 146 230 171 110 121 156 146 146 168 203 151 115 123 43 128 98 144 144 151 150 152 135 144 150 148 145 143 138 132 122 117 130 160 163 149 130 106 87 82 82 71 65 55 95 104 106 85
359 231 179 162 137 113 132 143 159 159 140 151 180 129 111 124 116 133 146 151 153 154 154 156 160 157 156 156 152 152 153 153 149 147 187 257 296 143 127 112 97 92 83 75 71 67 53 50 49
159 272 199 187 145 134 152 158 162 160 145 137 162 137 115 123 149 144 146 150 150 153 157 155 169 172 163 168 164 163 160 159 170 184 250 221 52 125 134 141 139 122 105 91 78 60 51 35 19
88 245 165 153 143 164 156 166 173 161 156 164 132 141 111 166 147 149 148 144 150 148 166 173 179 178 179 176 171 172 167 166 168 168 93 95 88 72 64 21 300 265 235 236 225 230 287 318 332
80 47 153 165 170 149 146 168 185 183 159 105 188 171 161 166 160 156 151 152 156 163 180 183 189 193 191 178 183 185 183 183 173 168 144 123 123 114 117 262 200 294 295 302 256 250 257 276 292
297 172 177 168 171 137 153 182 148 99 155 190 175 281 79 145 157 163 160 163 166 177 187 187 187 192 197 202 167 194 203 201 190 185 178 189 226 217 222 66 283 277 279 278 277 271 254 273 260
53 214 172 145 133 152 164 207 155 183 179 193 185 136 141 154 166 173 179 177 181 181 185 188 193 194 194 193 202 213 198 213 209 211 209 223 222 226 274 272 253 264 270 275 277 277 275 249 294
101 172 150 153 128 140 164 196 171 189 205 206 201 166 164 170 179 185 190 185 186 182 180 193 194 199 203 201 199 199 201 206 210 217 222 240 233 211 214 256 229 243 203 254 233 225 254 291 299
144 74 156 141 167 166 179 152 195 211 190 309 191 172 172 182 185 188 187 186 185 186 189 190 204 205 214 221 214 217 212 205 215 214 217 233 250 234 232 225 238 245 284 275 257 235 229 237 236
151 146 137 80 141 175 155 210 240 229 215 232 207 191 190 192 190 185 182 184 186 191 186 213 216 224 226 224 232 234 233 224 232 226 212 215 227 246 270 228 214 227 228 238 242 243 248 249 255
98 129 131 169 190 303 226 209 225 220 201 216 198 204 200 196 187 182 184 183 194 198 183 106 113 264 258 241 238 243 242 243 238 246 237 235 242 245 245 253 234 240 228 235 231 229 233 237 243
104 147 171 194 182 209 235 236 235 215 206 224 212 205 197 195 185 199 183 193 191 160 137 107 81 45 44 32 280 256 251 258 255 267 251 256 252 257 255 254 252 252 242 249 251 255 251 255 261
111 206 226 114 186 147 226 253 235 181 204 220 210 198 189 183 184 173 177 167 146 148 146 123 116 86 62 52 52 86 104 150 39 4 350 4 338 295 278 280 288 285 272 273 278 278 274 276 282
163 220 218 271 253 209 224 266 357 2 235 227 216 198 190 179 187 182 164 151 129 127 135 116 89 75 64 88 104 87 72 68 56 54 35 13 9 359 348 349 324 313 328 359 336 327 322 317 316
190 201 207 232 93 229 231 257 234 215 265 241 234 213 207 206 199 170 155 132 118 103 90 84 63 34 45 128 124 121 95 73 55 39 28 18 14 10 16 13 11 351 350 35 347 334 331 334 329
166 190 201 144 74 256 254 268 269 257 245 246 244 229 224 219 178 167 147 139 122 90 92 69 64 29 19 128 154 158 107 97 76 58 36 33 22 15 19 24 21 6 23 31 10 343 320 301 335
136 158 186 125 49 247 289 282 274 251 244 235 236 233 226 212 198 181 164 155 139 111 90 70 51 31 28 53 82 82 115 83 87 83 55 37 32 27 26 20 22 17 12 22 11 355 326 308 355
202 220 195 298 179 191 300 263 252 237 257 259 254 253 242 228 208 186 175 159 139 111 93 87 58 39 35 73 126 108 107 114 128 88 61 35 33 32 28 25 18 21 20 25 18 9 5 327 33
212 191 163 163 232 261 337 292 284 258 274 264 272 245 242 234 228 184 173 161 145 124 103 88 76 57 35 19 147 137 118 126 79 75 63 52 37 34 29 26 26 31 35 37 24 16 7 326 357
148 159 154 148 223 297 182 242 281 313 255 178 34 348 273 301 234 188 172 150 132 138 117 97 82 67 56 60 83 106 91 92 103 94 85 63 54 39 31 29 32 37 37 44 36 32 38 36 35
136 108 82 80 213 242 195 231 250 216 202 212 296 339 346 111 161 152 135 138 130 124 119 110 103 80 63 68 70 91 111 116 115 94 81 58 55 45 34 34 38 40 39 37 41 48 49 52 58
156 156 139 213 209 253 112 205 263 268 274 291 305 316 138 149 153 152 151 150 142 147 130 119 114 90 76 76 72 73 81 86 91 84 66 61 59 45 35 31 34 39 41 49 54 59 58 54 61
172 192 209 219 202 131 154 229 247 242 296 320 328 124 119 134 144 153 151 155 157 156 155 146 135 125 111 98 92 91 97 101 97 85 85 74 71 60 44 51 53 54 53 63 66 70 67 67 65
166 209 81 110 70 251 203 248 271 198 218 93 126 140 141 146 156 162 164 168 165 166 170 163 154 138 128 125 119 107 97 99 103 105 106 107 108 96 81 69 69 66 68 67 74 74 77 75 72
203 148 150 175 205 230 181 258 248 200 203 164 173 167 163 165 173 173 177 178 176 174 170 174 169 159 150 130 115 109 109 106 107 105 97 93 87 82 77 77 76 75 74 77 85 86 81 89 83
155 185 148 145 248 255 291 231 187 236 287 238 188 182 180 183 184 183 185 185 183 183 186 188 183 171 164 158 146 141 128 117 110 104 98 90 90 83 79 75 76 77 80 82 91 94 97 94 91
220 205 179 203 191 241 322 251 163 246 265 231 191 184 194 191 181 181 182 182 188 194 193 197 192 190 182 171 166 157 145 136 124 118 114 115 107 90 91 94 92 84 80 79 82 86 84 85 82